[[{"header":{"parameterUnit":"m.s-1","parameterCategory":1,"la1":30.2991,"la2":30.254,"lo1":-89.0895,"lo2":-89.0444,"dy":0.0017,"dx":0.0017,"nx":28,"ny":28,"refTime":"2023-09-25T21:00:00:Z","depth":0,"parameterNumber":2,"parameterNumberName":"U-component_of_WINDS"},"data":[0,0,0,0,0,0,0,0,0,0,0,0,0,0,0,0,0,0,0,0,0,0,0,0,0,0,0,0,0,0,0,0,0,0,0,0,0,0,0,0,0,0,0,0,0,0,0,0,0,0,0,0,0,0,0,0,0,0,-4.5004,-4.5005,0,-4.5088,-4.5089,-4.509,-4.5006,-4.5003,-4.5,-4.4997,-4.5082,-4.5088,-4.5093,0,0,0,0,0,0,0,0,0,0,0,0,0,-4.4769,-4.4774,-4.5004,-4.5005,-4.5006,-4.5088,-4.5089,-4.509,-4.5007,-4.5003,-4.4999,-4.4995,-4.5081,-4.5087,-4.5093,0,0,0,0,0,0,0,0,0,0,0,0,0,-4.4864,-4.4775,-4.5003,-4.4974,-4.4972,-4.5088,-4.5089,-4.509,-4.5008,-4.5003,-4.4998,-4.4993,-4.5079,-4.5086,-4.5094,-4.5242,0,0,-4.5119,-4.5122,0,0,0,0,0,0,0,0,-4.4859,-4.4873,-4.4977,-4.4976,-4.4975,-4.5032,-4.5038,-4.5141,-4.5009,-4.4994,-4.4997,-4.4991,-4.5069,-4.5078,-4.5104,-4.5246,-4.525,-4.5119,-4.5124,-4.5128,-4.513,0,0,0,0,0,0,0,-4.4852,-4.4869,-4.5037,-4.4979,-4.4977,-4.4956,-4.4964,-4.5057,-4.5058,-4.4995,-4.4989,-4.5001,-4.5068,-4.5097,-4.5106,-4.5251,-4.5119,-4.5126,-4.5131,-4.5134,-4.5516,-4.5521,0,0,0,0,0,0,-4.4849,-4.4864,-4.5034,-4.5039,-4.4903,-4.4965,-4.4974,-4.5018,-4.5057,-4.5058,-4.5005,-4.4996,-4.5086,-4.5097,-4.5109,-4.5282,-4.5128,-4.5135,-4.514,-4.5511,-4.5517,-4.5523,0,0,0,0,0,0,-4.4844,-4.4865,-4.5031,-4.495,-4.497,-4.4974,-4.5025,-4.5023,-4.5052,-4.5064,-4.5064,-4.5034,-4.5082,-4.5097,-4.5209,-4.5284,-4.5139,-4.5146,-4.5505,-4.5513,-4.552,-4.5631,0,0,0,0,0,0,-4.4838,-4.4864,-4.492,-4.4952,-4.4974,-4.5131,-4.503,-4.5028,-4.5066,-4.5056,-4.5092,-4.5093,-4.508,-4.5198,-4.5217,-4.5292,-4.5152,-4.5498,-4.5508,-4.5518,-4.5621,-4.5642,-4.566,0,0,0,0,0,-4.483,-4.4949,-4.4924,-4.4945,-4.5045,-4.5135,-4.5148,-4.5129,-4.5072,-4.5128,-4.5137,-4.5092,-4.5273,-4.521,-4.5231,-4.5309,-4.5493,-4.5505,-4.5517,-4.5612,-4.5638,-4.5659,0,0,0,0,0,0,-4.4925,-4.4952,-4.4925,-4.5058,-4.5095,-4.5121,-4.5191,-4.5158,-4.5212,-4.52,-4.5175,-4.5184,-4.5302,-4.5317,-4.5246,-4.5454,-4.5374,-4.5391,-4.5438,-4.5463,-4.5482,-4.5474,-4.5159,0,0,0,0,0,-4.4962,-4.5034,-4.5053,-4.5168,-4.5188,-4.5187,-4.5226,-4.5208,-4.5246,-4.5261,-4.5277,-4.5315,-4.5379,-4.5423,-4.5484,-4.5624,-4.5629,-4.5688,-4.5708,-4.5724,-4.5738,-4.581,-4.5836,-4.5563,-4.5562,-4.5562,0,0,-4.5038,-4.5062,-4.5108,-4.5188,-4.5215,-4.5288,-4.5201,-4.5282,-4.5336,-4.5273,-4.5378,-4.5393,-4.5433,-4.5559,-4.5615,-4.5575,-4.5815,-4.5739,-4.5752,-4.5757,-4.5825,-4.5851,-4.5874,-4.5571,-4.5569,-4.5568,0,0,-4.5213,-4.524,-4.5337,-4.5366,-4.5407,-4.5406,-4.5429,-4.5461,-4.5467,-4.5573,-4.5527,-4.5591,-4.5704,-4.5734,-4.5764,-4.5951,-4.5911,-4.5972,-4.6073,-4.6144,-4.6165,-4.6184,-4.6247,-4.6271,-4.5986,-4.5987,-4.5987,0,-4.5302,-4.5411,-4.5391,-4.5476,-4.5511,-4.5459,-4.5556,-4.5585,-4.5645,-4.567,-4.5625,-4.5765,-4.5789,-4.5919,-4.5965,-4.5992,-4.6016,-4.5965,-4.6164,-4.6183,-4.62,-4.626,-4.6284,-4.5993,-4.5993,-4.5992,-4.5991,0,-4.5516,-4.5593,-4.5666,-4.5724,-4.5769,-4.586,-4.5853,-4.59,-4.588,-4.5883,-4.5991,-4.6018,-4.6082,-4.6112,-4.6094,-4.624,-4.6214,-4.6168,-4.6086,-4.6233,-4.6288,-4.6312,-4.6003,-4.6001,-4.5999,-4.5997,0,0,-4.5751,-4.5798,-4.5825,-4.5849,-4.5892,-4.595,-4.6039,-4.6101,-4.6141,-4.6185,-4.6256,-4.6354,-4.631,-4.6345,-4.6329,-4.6392,-4.6534,-4.6337,-4.6338,-4.6369,-4.6694,-4.6725,-4.6752,-4.651,-4.6514,-4.6518,-4.6689,0,-4.5924,-4.6076,-4.6062,-4.6206,-4.6275,-4.6227,-4.6303,-4.6337,-4.6343,-4.6402,-4.6408,-4.6476,-4.6416,-4.6436,-4.6496,-4.6504,-4.6598,-4.6492,-4.6574,-4.6577,-4.6561,-4.6782,-4.6816,-4.6976,-4.6711,-4.6715,-4.6717,0,-4.6145,-4.6196,-4.6348,-4.6378,-4.6406,-4.6476,-4.6531,-4.6589,-4.6626,-4.6626,-4.6664,-4.6638,-4.6725,-4.6645,-4.6764,-4.6692,-4.6725,-4.6735,-4.674,-4.6744,-4.6653,-4.6788,-4.7027,-4.705,-4.6752,-4.675,-4.6747,0,-4.6296,-4.6403,-4.6507,-4.653,-4.657,-4.6619,-4.6637,-4.667,-4.6708,-4.6757,-4.6781,-4.6841,-4.6872,-4.6918,-4.6908,-4.6851,-4.7029,-4.6948,-4.7028,-4.7028,-4.7064,-4.7061,-4.7308,-4.7093,-4.7093,-4.7092,-4.7092,0,-4.6489,-4.6582,-4.6575,-4.6638,-4.6741,-4.6724,-4.6826,-4.6839,-4.6868,-4.6932,-4.6896,-4.6956,-4.6941,-4.7002,-4.6995,-4.7092,-4.7108,-4.7108,-4.7105,-4.7109,-4.7109,-4.7127,-4.7114,-4.7099,-4.7097,-4.7096,-4.7095,0,-4.6673,-4.6672,-4.6781,-4.681,-4.6819,-4.6894,-4.6917,-4.6977,-4.698,-4.7062,-4.708,-4.7085,-4.7154,-4.7149,-4.7227,-4.7223,-4.7342,-4.7328,-4.7329,-4.7324,-4.7403,-4.7394,-4.7667,-4.77,-4.7468,-4.747,-4.7472,0,-4.6793,-4.6864,-4.6901,-4.6941,-4.6963,-4.7029,-4.7067,-4.7054,-4.7095,-4.7143,-4.7196,-4.7262,-4.7313,-4.7425,-4.7435,-4.7494,-4.7478,-4.757,-4.7486,-4.7488,-4.7474,-4.7468,-4.7474,-4.7585,-4.7587,-4.759,-4.7591,0,-4.7006,-4.7002,-4.706,-4.7117,-4.7164,-4.7209,-4.725,-4.7285,-4.7275,-4.7324,-4.7394,-4.7434,-4.7513,-4.7578,-4.7634,-4.7652,-4.7619,-4.7618,-4.7639,-4.7642,-4.7638,-4.7637,-4.7369,-4.7611,-4.7609,-4.7607,-4.7606,-4.7606,-4.7159,-4.7219,-4.7253,-4.7318,-4.7347,-4.7386,-4.7442,-4.7453,-4.7511,-4.7574,-4.7563,-4.7641,-4.7676,-4.7748,-4.7772,-4.7832,-4.7799,-4.783,-4.7837,-4.7844,-4.7851,-4.7633,-4.7843,-4.7842,-4.7842,-4.7841,-4.7841,0,-4.7366,-4.7386,-4.7446,-4.7504,-4.7555,-4.7522,-4.7565,-4.7609,-4.7678,-4.7714,-4.7765,-4.7844,-4.7907,-4.7923,-4.7982,-4.8027,-4.8013,-4.8043,-4.8037,-4.8041,-4.7879,-4.7853,-4.8053,-4.8053,-4.8053,-4.8053,-4.8052,-4.8052,-4.7479,-4.7577,-4.7578,-4.769,-4.7709,-4.7785,-4.7812,-4.7847,-4.7875,-4.7965,-4.8017,-4.8027,-4.8054,-4.8115,-4.8171,-4.8174,-4.8196,-4.823,-4.8227,-4.8074,-4.8053,-4.8032,-4.8007,-4.8236,-4.8237,-4.8383,-4.8385,-4.8386]},{"header":{"parameterUnit":"m.s-1","parameterCategory":1,"la1":30.2991,"la2":30.254,"lo1":-89.0895,"lo2":-89.0444,"dy":0.0017,"dx":0.0017,"nx":28,"ny":28,"refTime":"2023-09-25T21:00:00:Z","depth":0,"parameterNumber":3,"parameterNumberName":"V-component_of_WINDS"},"data":[0,0,0,0,0,0,0,0,0,0,0,0,0,0,0,0,0,0,0,0,0,0,0,0,0,0,0,0,0,0,0,0,0,0,0,0,0,0,0,0,0,0,0,0,0,0,0,0,0,0,0,0,0,0,0,0,0,0,-0.1915,-0.1913,0,-0.1744,-0.1742,-0.174,-0.1719,-0.1721,-0.1723,-0.1724,-0.1543,-0.1537,-0.1531,0,0,0,0,0,0,0,0,0,0,0,0,0,-0.2213,-0.2208,-0.1915,-0.1913,-0.191,-0.1745,-0.1742,-0.174,-0.1719,-0.1721,-0.1723,-0.1725,-0.1546,-0.1538,-0.153,0,0,0,0,0,0,0,0,0,0,0,0,0,-0.2067,-0.2206,-0.1915,-0.188,-0.1875,-0.1745,-0.1742,-0.1739,-0.1718,-0.1721,-0.1724,-0.1726,-0.1548,-0.1539,-0.1529,-0.142,0,0,-0.15,-0.1496,0,0,0,0,0,0,0,0,-0.2076,-0.2056,-0.1887,-0.1882,-0.1877,-0.1756,-0.1781,-0.1632,-0.1718,-0.1778,-0.1724,-0.1727,-0.1612,-0.1597,-0.1559,-0.1412,-0.1404,-0.1499,-0.1494,-0.1489,-0.1487,0,0,0,0,0,0,0,-0.2086,-0.2064,-0.1847,-0.1885,-0.1878,-0.187,-0.1852,-0.1753,-0.1682,-0.1773,-0.1771,-0.1751,-0.1609,-0.1569,-0.1555,-0.1401,-0.15,-0.1491,-0.1485,-0.1481,-0.1151,-0.1148,0,0,0,0,0,0,-0.2103,-0.2072,-0.1852,-0.1842,-0.1985,-0.1863,-0.1843,-0.1792,-0.1684,-0.167,-0.1749,-0.1751,-0.1584,-0.1566,-0.1549,-0.1411,-0.1489,-0.1481,-0.1475,-0.1154,-0.115,-0.1147,0,0,0,0,0,0,-0.211,-0.2084,-0.1859,-0.1956,-0.1927,-0.1855,-0.1798,-0.1787,-0.1747,-0.1666,-0.1653,-0.1721,-0.1585,-0.1562,-0.1452,-0.1404,-0.1476,-0.1468,-0.1157,-0.1153,-0.1148,-0.1136,0,0,0,0,0,0,-0.2119,-0.2087,-0.2047,-0.1956,-0.1922,-0.1768,-0.1795,-0.1782,-0.1731,-0.1732,-0.1636,-0.1623,-0.1585,-0.1466,-0.1442,-0.1392,-0.146,-0.1161,-0.1155,-0.115,-0.114,-0.1132,-0.1124,0,0,0,0,0,-0.2129,-0.205,-0.2045,-0.2018,-0.1871,-0.1765,-0.1746,-0.1706,-0.1728,-0.1685,-0.1632,-0.1626,-0.1414,-0.1455,-0.1428,-0.1374,-0.1164,-0.1157,-0.115,-0.1144,-0.1133,-0.1124,0,0,0,0,0,0,-0.2135,-0.2037,-0.2031,-0.192,-0.1851,-0.1762,-0.1708,-0.1697,-0.1619,-0.1623,-0.1574,-0.1553,-0.1444,-0.1398,-0.1446,-0.1261,-0.129,-0.1278,-0.1295,-0.1284,-0.1276,-0.1289,-0.1452,0,0,0,0,0,-0.2124,-0.2049,-0.1966,-0.1876,-0.1842,-0.1781,-0.1733,-0.1708,-0.1634,-0.1605,-0.1544,-0.1471,-0.1387,-0.1333,-0.1252,-0.1134,-0.111,-0.1083,-0.1075,-0.1069,-0.1058,-0.0988,-0.0974,-0.1124,-0.1124,-0.1124,0,0,-0.2099,-0.2036,-0.1992,-0.1875,-0.1819,-0.1739,-0.1756,-0.1672,-0.1611,-0.1591,-0.1483,-0.1436,-0.1351,-0.1235,-0.1181,-0.1193,-0.1011,-0.106,-0.1056,-0.1048,-0.098,-0.0965,-0.0953,-0.1119,-0.112,-0.1121,0,0,-0.2013,-0.1959,-0.1877,-0.182,-0.1735,-0.1695,-0.1675,-0.1586,-0.1554,-0.1446,-0.1428,-0.1354,-0.1212,-0.1151,-0.1101,-0.0988,-0.0977,-0.0963,-0.092,-0.0852,-0.084,-0.083,-0.0786,-0.0772,-0.0952,-0.0952,-0.0952,0,-0.1993,-0.1874,-0.1835,-0.175,-0.1698,-0.1678,-0.1591,-0.1537,-0.143,-0.1392,-0.1409,-0.1228,-0.1169,-0.1037,-0.1009,-0.0971,-0.0943,-0.0973,-0.0846,-0.0834,-0.0824,-0.0782,-0.0766,-0.0951,-0.0951,-0.0951,-0.0951,0,-0.1851,-0.1769,-0.1712,-0.1609,-0.155,-0.1466,-0.1411,-0.1355,-0.1334,-0.1291,-0.1178,-0.1106,-0.1009,-0.0976,-0.0955,-0.0839,-0.0849,-0.0856,-0.0884,-0.0809,-0.0768,-0.0752,-0.0949,-0.0949,-0.095,-0.095,0,0,-0.1765,-0.1641,-0.162,-0.1572,-0.1475,-0.1409,-0.1321,-0.1228,-0.1179,-0.1105,-0.1028,-0.0907,-0.0911,-0.0855,-0.0826,-0.0767,-0.0678,-0.078,-0.0777,-0.0762,-0.0542,-0.0536,-0.0519,-0.0671,-0.0668,-0.0665,-0.0548,0,-0.1666,-0.1512,-0.1473,-0.1339,-0.1261,-0.1238,-0.1161,-0.1092,-0.1048,-0.0972,-0.0923,-0.0837,-0.0851,-0.0816,-0.0757,-0.0702,-0.0633,-0.071,-0.0595,-0.0592,-0.0616,-0.0498,-0.0492,-0.0386,-0.0533,-0.053,-0.0528,0,-0.1531,-0.1454,-0.1313,-0.1224,-0.1189,-0.1121,-0.103,-0.0959,-0.0878,-0.085,-0.0786,-0.0762,-0.0666,-0.07,-0.0565,-0.0618,-0.0568,-0.0534,-0.0528,-0.0515,-0.0555,-0.0479,-0.0351,-0.0334,-0.0503,-0.0505,-0.0507,0,-0.1478,-0.134,-0.1237,-0.1197,-0.1091,-0.1042,-0.0996,-0.0918,-0.0862,-0.0781,-0.0744,-0.0653,-0.0602,-0.0531,-0.0481,-0.0511,-0.0349,-0.038,-0.032,-0.0321,-0.0286,-0.0289,-0.0146,-0.0258,-0.0258,-0.0258,-0.0258,0,-0.1371,-0.1285,-0.1212,-0.1149,-0.105,-0.1004,-0.0907,-0.0859,-0.0789,-0.0713,-0.0688,-0.0617,-0.0557,-0.0477,-0.0438,-0.033,-0.0308,-0.028,-0.027,-0.0281,-0.0284,-0.0247,-0.0252,-0.0254,-0.0255,-0.0256,-0.0256,0,-0.1296,-0.1244,-0.113,-0.1039,-0.1013,-0.0945,-0.0865,-0.08,-0.0755,-0.0659,-0.0634,-0.0562,-0.0466,-0.041,-0.0289,-0.0262,-0.0141,-0.0136,-0.0169,-0.0164,-0.0106,-0.0112,0.0066,0.0094,-0.0038,-0.0037,-0.0036,0,-0.1231,-0.1164,-0.1065,-0.1013,-0.0966,-0.0883,-0.0826,-0.0777,-0.0718,-0.062,-0.0566,-0.0469,-0.0388,-0.0235,-0.017,-0.0076,-0.0066,-0.001,-0.0052,-0.0064,-0.0062,-0.0066,-0.0057,-0.0003,-0.0002,-0.0001,0.0,0,-0.1118,-0.1095,-0.1016,-0.0926,-0.0859,-0.0786,-0.0712,-0.0671,-0.0608,-0.0543,-0.0445,-0.0383,-0.0258,-0.016,-0.006,-0.0009,0.0008,0.0013,0.0032,0.0022,0.0001,0.0016,-0.0147,0.0009,0.0008,0.0007,0.0007,0.0006,-0.1044,-0.0982,-0.0903,-0.0814,-0.0753,-0.0685,-0.0619,-0.0565,-0.0483,-0.0379,-0.0354,-0.025,-0.0167,-0.0031,0.0023,0.0108,0.0098,0.0125,0.0133,0.0139,0.0143,-0.0014,0.0126,0.0126,0.0125,0.0125,0.0125,0,-0.0928,-0.0875,-0.0794,-0.0692,-0.0621,-0.0614,-0.0532,-0.0472,-0.0381,-0.0306,-0.0227,-0.0112,-0.0016,0.0057,0.0156,0.021,0.022,0.0234,0.0232,0.0244,0.0144,0.0118,0.0224,0.0224,0.0224,0.0224,0.0224,0.0224,-0.0859,-0.0754,-0.0721,-0.0583,-0.053,-0.0429,-0.0382,-0.0317,-0.0257,-0.013,-0.0051,-0.0005,0.0071,0.0176,0.0266,0.0285,0.0322,0.0335,0.0356,0.0261,0.0251,0.0241,0.0217,0.0342,0.0342,0.045,0.0451,0.0452]}]]